DLH2RV EDDF-LDZA

Flight info

Callsign DLH2RV
Flight time N/A
Altitude 35000
Route CINDY8S/18 CINDY Z74 LAMPU DCT NOMBO Y161 MAH DCT LATLO DCT OBEDI DCT NAKUM DCT KFT DCT OLEZE DCT LULUD LULUD2Z
Aircraft A21N/M-SDE2E3FGIJ1LORWXYZ/HB1

Departure

Time 2026-05-03 20:50
Airport Frankfurt Main Airport (EDDF)

Arrival

Time N/A
Airport Zagreb Franjo Tuđman International Airport (LDZA)
Time Latitude Longitude Altitude Speed Heading
2026-05-03 20:22 50.04684 8.56043 355 ft 0 kts 340°
2026-05-03 20:35 50.04676 8.56048 354 ft 2 kts 340°
2026-05-03 20:35 50.04665 8.56054 354 ft 2 kts 340°
2026-05-03 20:35 50.04651 8.56062 354 ft 2 kts 340°
2026-05-03 20:35 50.04636 8.56071 354 ft 2 kts 340°
2026-05-03 20:36 50.04622 8.56079 354 ft 2 kts 340°
2026-05-03 20:36 50.04613 8.56084 354 ft 2 kts 334°
2026-05-03 20:36 50.04603 8.56099 354 ft 2 kts 302°
2026-05-03 20:36 50.04600 8.56106 354 ft 2 kts 292°
2026-05-03 20:37 50.04597 8.56129 354 ft 2 kts 264°
2026-05-03 20:37 50.04599 8.56142 354 ft 1 kts 249°
2026-05-03 20:37 50.04596 8.56124 354 ft 3 kts 252°
2026-05-03 20:37 50.04586 8.56086 354 ft 3 kts 250°
2026-05-03 20:38 50.04580 8.56062 354 ft 0 kts 250°
2026-05-03 20:38 50.04580 8.56061 354 ft 0 kts 250°
2026-05-03 20:40 50.04579 8.56056 354 ft 2 kts 250°
2026-05-03 20:40 50.04565 8.55998 354 ft 8 kts 242°
2026-05-03 20:41 50.04498 8.55944 354 ft 13 kts 196°
2026-05-03 20:41 50.04409 8.55911 354 ft 13 kts 180°
2026-05-03 20:41 50.04320 8.55947 354 ft 12 kts 161°
2026-05-03 20:41 50.04250 8.55943 354 ft 11 kts 223°
2026-05-03 20:42 50.04215 8.55827 354 ft 13 kts 249°
2026-05-03 20:42 50.04182 8.55689 354 ft 14 kts 250°
2026-05-03 20:42 50.04146 8.55538 353 ft 15 kts 250°
2026-05-03 20:42 50.04107 8.55376 353 ft 16 kts 250°
2026-05-03 20:43 50.04065 8.55200 353 ft 18 kts 250°
2026-05-03 20:43 50.04018 8.55004 353 ft 20 kts 250°
2026-05-03 20:43 50.03970 8.54804 353 ft 22 kts 250°
2026-05-03 20:44 50.03953 8.54734 353 ft 22 kts 250°
2026-05-03 20:44 50.03921 8.54598 353 ft 23 kts 250°
2026-05-03 20:44 50.03866 8.54383 353 ft 18 kts 240°
2026-05-03 20:44 50.03798 8.54203 353 ft 20 kts 249°
2026-05-03 20:45 50.03752 8.54017 353 ft 21 kts 250°
2026-05-03 20:45 50.03716 8.53866 353 ft 22 kts 250°
2026-05-03 20:46 50.03658 8.53632 353 ft 23 kts 249°
2026-05-03 20:46 50.03599 8.53391 353 ft 24 kts 250°
2026-05-03 20:46 50.03541 8.53152 353 ft 22 kts 250°
2026-05-03 20:46 50.03486 8.52928 353 ft 21 kts 249°
2026-05-03 20:47 50.03441 8.52760 353 ft 10 kts 249°
2026-05-03 20:47 50.03437 8.52741 353 ft 0 kts 249°
2026-05-03 20:47 50.03435 8.52735 353 ft 2 kts 249°
2026-05-03 20:47 50.03416 8.52662 353 ft 11 kts 242°
2026-05-03 20:48 50.03348 8.52604 353 ft 10 kts 182°
2026-05-03 20:48 50.03341 8.52604 353 ft 0 kts 181°
2026-05-03 20:49 50.03305 8.52603 353 ft 26 kts 181°
2026-05-03 20:49 50.02879 8.52609 353 ft 95 kts 180°
2026-05-03 20:50 50.02010 8.52617 353 ft 152 kts 180°
2026-05-03 20:50 50.00867 8.52631 691 ft 169 kts 183°
2026-05-03 20:50 49.99720 8.52629 1312 ft 171 kts 184°
2026-05-03 20:50 49.98521 8.52633 1846 ft 180 kts 185°
2026-05-03 20:51 49.97224 8.52818 2166 ft 200 kts 168°
2026-05-03 20:51 49.96050 8.54114 2460 ft 228 kts 133°
2026-05-03 20:51 49.95240 8.56246 2810 ft 246 kts 123°
2026-05-03 20:51 49.94461 8.58592 3515 ft 248 kts 118°
2026-05-03 20:52 49.93980 8.61113 4165 ft 256 kts 102°
2026-05-03 20:52 49.93822 8.63860 4588 ft 273 kts 96°
2026-05-03 20:52 49.93751 8.66628 4984 ft 286 kts 96°
2026-05-03 20:52 49.93477 8.69116 5515 ft 285 kts 117°
2026-05-03 20:53 49.92371 8.71384 6288 ft 273 kts 147°
2026-05-03 20:53 49.90820 8.73019 7137 ft 270 kts 151°
2026-05-03 20:53 49.89275 8.74706 7867 ft 277 kts 144°
2026-05-03 20:53 49.87966 8.76941 8616 ft 285 kts 130°
2026-05-03 20:54 49.86933 8.79563 9391 ft 289 kts 125°
2026-05-03 20:54 49.84571 8.84502 10800 ft 288 kts 138°
2026-05-03 20:54 49.83179 8.86748 11215 ft 300 kts 139°
2026-05-03 20:55 49.81676 8.89146 11520 ft 317 kts 138°
2026-05-03 20:55 49.80112 8.91654 11900 ft 330 kts 138°
2026-05-03 20:55 49.78543 8.94186 12486 ft 335 kts 137°
2026-05-03 20:55 49.77092 8.96533 13023 ft 339 kts 137°